Preview of NWS' New Version of Forecast
This preview is not operational and should not be used for support decisions.

Regional Weather Roundup (RWR)

Issued by National Weather Service (NWS)

                            
000
ASUS43 KTOP 152108
RWRKS 

WEATHER ROUNDUP FOR KANSAS
NATIONAL WEATHER SERVICE GOODLAND KS
400 PM CDT MON OCT 15 2018

NOTE:  "FAIR" INDICATES FEW OR NO CLOUDS BELOW 12,000 FEET WITH NO
SIGNIFICANT WEATHER AND/OR OBSTRUCTIONS TO VISIBILITY.

KSZ001>006-013>018-027>032-041>047-152200-
NORTHWEST KANSAS
  
CITY           SKY/WX    TMP DP  RH WIND       PRES   REMARKS
GOODLAND       SUNNY     46  23  40 NW14      30.33F                  
HAYS           SUNNY     44  25  47 CALM      30.38F                  
HILL CITY      SUNNY     49  24  37 NW10      30.35F                  
RUSSELL        SUNNY     45  29  53 VRB5      30.37F                  
$$

KSZ061>065-074>080-084>089-152200-
SOUTHWEST KANSAS
  
CITY           SKY/WX    TMP DP  RH WIND       PRES   REMARKS
DODGE CITY     SUNNY     46  25  43 N6        30.37F                  
ELKHART        SUNNY     47  25  41 N7G16     30.36F                  
GARDEN CITY    SUNNY     45  20  36 N7G20     30.37F                  
GREAT BEND     SUNNY     44  27  51 NW7       30.39F                  
LIBERAL        SUNNY     47  26  44 N6        30.38F                  
PRATT          SUNNY     44  26  47 N8        30.40S                  
$$

KSZ066>073-081>083-090>101-152200-
SOUTHEAST KANSAS
  
CITY           SKY/WX    TMP DP  RH WIND       PRES   REMARKS
CHANUTE        SUNNY     48  32  53 NW7       30.38F                  
COFFEYVILLE    SUNNY     49  32  52 N10G18    30.38F                  
HUTCHINSON     SUNNY     46  30  53 N10       30.39F                  
MEDICINE LODGE   N/A     47  28  47 NE8       30.39F                  
NEWTON         SUNNY     43  30  60 N10       30.39F                  
PARSONS        SUNNY     49  32  52 N5        30.39F                  
WICHITA INTL   MOSUNNY   46  29  51 NE9G18    30.39F                  
WICHITA JABRA  SUNNY     46  30  53 N12       30.39F                  
WICHITA MCCONL SUNNY     46  28  51 N8        30.38F                  
WINFIELD       SUNNY     47  30  51 NE9G18    30.40F                  
$$

KSZ007>012-019>026-033>040-048>060-102>105-152200-
NORTHEAST KANSAS
  
CITY           SKY/WX    TMP DP  RH WIND       PRES   REMARKS
CONCORDIA      SUNNY     45  26  47 VRB3      30.37F                  
EMPORIA        SUNNY     45  29  53 NW8       30.39F                  
LAWRENCE       SUNNY     47  31  53 NW7       30.39F                  
MANHATTAN      SUNNY     46  31  55 N6        30.39F                  
MARYSVILLE     SUNNY     46  28  49 CALM      30.36F                  
OLATHE IND     SUNNY     45  32  60 NW9       30.39F                  
OLATHE EXE     SUNNY     44  31  60 NW7       30.38S                  
SALINA         SUNNY     46  29  51 VRB5      30.40F                  
TOPEKA BILLARD SUNNY     46  31  55 NW3       30.39F                  
TOPEKA FORBES  SUNNY     46  30  53 NW8       30.39F                  
$$